Date,TemperatureHighF,TemperatureAvgF,TemperatureLowF,DewpointHighF,DewpointAvgF,DewpointLowF,HumidityHigh,HumidityAvg,HumidityLow,PressureMaxIn,PressureMinIn,WindSpeedMaxMPH,WindSpeedAvgMPH,GustSpeedMaxMPH,PrecipitationSumIn
2013-2-1,45,38,29,15,11,6,41,32,28,24.13,23.98,20,4,23,0.00
2013-2-2,52,40,26,12,9,4,47,29,18,24.19,24.13,16,4,17,0.00
2013-2-3,54,30,23,13,5,1,44,37,18,24.07,23.89,13,2,14,0.00
2013-2-4,50,40,28,9,5,-2,32,22,19,23.95,23.83,17,3,22,0.00
2013-2-5,58,44,36,20,12,5,36,26,20,24.01,23.86,23,3,23,0.00
2013-2-6,53,39,30,27,17,11,82,44,23,24.04,23.80,14,2,15,0.00
2013-2-7,46,30,20,24,13,2,83,55,27,24.10,23.98,14,1,14,0.00
2013-2-8,48,30,18,11,3,-1,43,33,19,23.98,23.71,8,1,9,0.00
2013-2-9,35,28,22,22,13,3,87,56,33,23.71,23.56,15,2,15,0.00
2013-2-10,32,24,19,23,12,2,86,61,33,23.98,23.59,11,2,12,0.00
2013-2-11,23,17,10,17,10,2,78,72,65,23.98,23.89,10,2,11,0.00
2013-2-12,39,25,9,6,1,-4,70,38,21,23.98,23.95,10,2,11,0.00
2013-2-13,42,35,30,11,6,2,31,29,26,23.98,23.89,20,5,22,0.00
2013-2-14,38,26,14,20,12,2,85,61,29,24.16,23.95,18,3,18,0.00
2013-2-15,36,23,8,32,12,3,87,65,33,24.19,24.13,14,2,14,0.00
2013-2-16,50,40,32,16,10,6,36,29,22,24.13,23.95,26,5,30,0.00
2013-2-17,58,39,28,14,7,2,40,27,17,23.95,23.59,18,3,30,0.00
2013-2-18,37,29,18,8,2,-6,45,30,24,24.01,23.74,17,3,19,0.00
2013-2-19,37,25,15,8,2,-6,45,37,30,24.01,23.77,11,2,12,0.00
2013-2-20,34,24,18,22,10,4,87,57,34,23.77,23.62,12,3,12,0.00
2013-2-21,24,19,12,18,14,7,84,80,76,23.83,23.65,9,3,10,0.00
2013-2-22,32,21,9,26,14,3,86,74,39,23.86,23.77,14,2,17,0.00
2013-2-23,51,33,25,19,9,0,69,38,24,23.80,23.59,14,4,19,0.04
2013-2-24,28,25,21,24,21,16,90,85,69,24.04,23.71,13,3,16,0.04
2013-2-25,34,19,4,28,14,0,88,80,58,24.04,23.80,12,2,12,0.12
2013-2-26,30,23,12,27,19,6,90,85,78,24.07,23.77,9,1,10,0.16
2013-2-27,37,21,6,26,9,0,83,61,30,24.13,24.07,13,2,13,0.16
2013-2-28,41,28,14,12,5,0,56,38,23,24.16,24.07,15,3,17,0.16